Regional Weather Roundup
Issued by NWS

Home | Current Version | Previous Version | Graphics & Text | Print | Product List | Glossary On
Versions: 1 2 3 4 5 6 7 8 9 10 11 12 13 14 15 16 17 18 19 20 21 22 23 24 25 26 27 28 29 30 31 32 33 34 35 36 37 38 39 40 41 42 43 44 45 46 47 48 49 50
000
ASUS43 KMPX 251201
RWRMN
WEATHER ROUNDUP FOR MINNESOTA
NATIONAL WEATHER SERVICE TWIN CITIES/CHANHASSEN MN
600 AM CST SAT NOV 25 2017


NOTE: "FAIR" INDICATES FEW OR NO CLOUDS BELOW 12,000 FEET WITH NO
SIGNIFICANT WEATHER AND/OR OBSTRUCTIONS TO VISIBILITY. N/A MEANS
CURRENT SKY AND/OR WEATHER CONDITIONS ARE NOT AVAILABLE.

MNZ060>063-068>070-251300-
   Twin Cities Metro

CITY           SKY/WX    TMP DP  RH WIND       PRES   REMARKS
TWIN CITIES    CLEAR     34  30  85 W10       29.93R WCI  26
6HR MIN TEMP:  34; 6HR MAX TEMP:  41;

ST PAUL        CLEAR     35  29  78 W13       29.94R WCI  26
CRYSTAL        CLEAR     33  26  75 NW10      29.92R WCI  25
BLAINE         CLEAR     34  28  80 W9        29.91R WCI  26
LAKEVILLE      CLEAR     32  30  93 W13G18    29.92S WCI  22
EDEN PRAIRIE   CLEAR     34  29  82 W8        29.93R WCI  27
6HR MIN TEMP:  34; 6HR MAX TEMP:  40;

SOUTH ST PAUL  CLEAR     35  29  79 W8        29.92R WCI  29
LAKE ELMO      FAIR      34  30  86 NW9       29.92R WCI  26
$$
MNZ001>005-007-008-013>017-022>024-027-028-251300-
   Northwest Minnesota

CITY           SKY/WX    TMP DP  RH WIND       PRES   REMARKS
BEMIDJI        CLEAR     18  10  70 NW10      29.96R WCI   6
HALLOCK        CLEAR     16   9  73 NW7       30.03R WCI   6
ROSEAU         CLOUDY    16  10  79 N5        29.99S WCI   9
WARROAD        CLOUDY    12   7  79 NW6       30.00R WCI   3
CROOKSTON      CLEAR     19  12  73 N10       30.04R WCI   8
FOSSTON        CLEAR     16  10  79 NW8       29.99S WCI   5
DETROIT LAKES  CLEAR     21  18  86 N9G16     29.98F WCI  11
MOORHEAD       CLOUDY    25  19  80 N6        30.04R WCI  18
PARK RAPIDS    CLEAR     22  15  75 NW13      29.94R WCI  10
MAHNOMEN       FAIR      19  15  82 NW12      30.00R WCI   7
$$
MNZ006-009>011-018-025>026-251300-
   North Central Minnesota

CITY           SKY/WX    TMP DP  RH WIND       PRES   REMARKS
BAUDETTE       CLEAR     12   5  73 NW10      29.96R WCI  -1
FLAG ISLAND    CLOUDY    10   5  79 NW12      29.98R WCI  -4
INTL FALLS     CLEAR     14   5  67 NW12      29.94R WCI   0
6HR MIN TEMP:  14; 6HR MAX TEMP:  27;

WASKISH        CLEAR     16  10  79 N8        29.96R WCI   5
BIG FORK       CLEAR     18  10  73 NW5       29.92S WCI  11
LONGVILLE      PTCLDY    25  14  63 N6        29.92R WCI  18
GRAND RAPIDS   CLEAR     22  15  75 NW16      29.93R WCI   8
CRANE LAKE     CLOUDY    18  10  73 NW6       29.91R WCI   9
ORR            CLEAR     16   7  67 NW10G18   29.86R WCI   3
COOK           CLEAR     18  10  73 W10G16    29.89R WCI   6
WALKER         FAIR      20  10  64 NW9       29.94R WCI  10
$$
MNZ012-019>021-037-251300-
   Northeast Minnesota

CITY           SKY/WX    TMP DP  RH WIND       PRES   REMARKS
DULUTH         CLEAR     24  12  60 NW14G29   29.84R WCI  12
6HR MIN TEMP:  24; 6HR MAX TEMP:  37;

ELY            CLEAR     18  10  73 NW14G22   29.84R WCI   4
HIBBING        CLEAR     19  11  70 NW17G25   29.89R WCI   4
EVELETH        CLEAR     20  10  64 NW12G21   29.88R WCI   8
DULUTH HARBOR  CLEAR     30  18  59 NW15G23   29.90R WCI  19
TWO HARBORS    PTCLDY    28  16  59 NW8G18    29.83R WCI  20
SILVER BAY     CLEAR     25  16  68 NW12      29.80R WCI  14
GRAND MARAIS     N/A     26  14  60 VRB5G20   29.80R WCI  20
G MARAIS ARPRT CLOUDY    18   9  68 NW14G22   29.72R WCI   4
$$
MNZ029>031-032-039>041-046>048-054>057-064-251300-
   West Central Minnesota

CITY           SKY/WX    TMP DP  RH WIND       PRES   REMARKS
FERGUS FALLS   CLEAR     25  21  86 N7        30.02R WCI  17
WHEATON        CLEAR     27  25  93 NW5       30.05R WCI  21
MORRIS         CLEAR     28  27  93 NW12      30.00R WCI  18
ALEXANDRIA     CLEAR     28  25  88 NW9       29.97R WCI  19
ELBOW LAKE     MOCLDY    26  25  97 W7        30.01R WCI  18
WADENA         CLEAR     23  18  80 N12       29.95S WCI  12
GLENWOOD       CLEAR     28  27  93 W8        29.98R WCI  20
APPLETON       CLEAR     27  25  93 W5        30.02R WCI  21
BENSON         CLEAR     28  27  93 N8        30.01R WCI  20
ORTONVILLE     CLEAR     30  27  86 NW6       30.02R WCI  24
MADISON        CLEAR     32  28  86 NW7       30.02R WCI  26
WILLMAR        FAIR      32  30  93 NW10      30.00R WCI  24
$$
MNZ033>034-036-042>043-049>051-058-059-251300-
   Central Minnesota

CITY           SKY/WX    TMP DP  RH WIND       PRES   REMARKS
ST CLOUD       CLEAR     30  26  85 NW12      29.94R WCI  20
6HR MIN TEMP:  30; 6HR MAX TEMP:  38;

SAUK CENTRE    FAIR      29  25  86 NW12      29.96R WCI  19
PAYNESVILLE    CLEAR     30  29  97 W8        29.97R WCI  22
AITKIN         CLEAR     27  18  69 NW13G20   29.91R WCI  16
PINE RIVER     CLEAR     25  18  74 NW5       29.97R WCI  19
BRAINERD       CLEAR     28  19  69 NW12      29.93R WCI  18
STAPLES        CLEAR     25  18  74 NW14G21   29.94R WCI  13
LONG PRAIRIE   FAIR      28  23  80 NW14G21   29.95R WCI  17
LITTLE FALLS   CLEAR     30  19  64 NW5       29.95R WCI  25
LITCHFIELD     CLEAR     34  30  86 NW9       29.96R WCI  26
BUFFALO        CLEAR     32  28  86 W7        29.95R WCI  26
MAPLE LAKE     CLEAR     33  31  92 NW9       29.95R WCI  25
HUTCHINSON     CLOUDY    32  30  92 W8        29.97R WCI  25
$$
MNZ037-044-045-052-053-251300-
   East Central Minnesota

CITY           SKY/WX    TMP DP  RH WIND       PRES   REMARKS
PRINCETON      CLEAR     30  27  86 W9        29.93R WCI  22
MORA           CLEAR     32  23  69 NW10G17   29.91R WCI  24
CAMBRIDGE      CLEAR     34  21  60 W10       29.92R WCI  26
RUSH CITY      CLEAR     30  24  77 NW5       29.91R WCI  25
MOOSE LAKE     CLEAR     28  19  69 NW8       29.87R WCI  20
HINCKLEY       FAIR      32  23  69 NW7       29.89R WCI  26
CLOQUET        CLEAR     27  16  63 NW15G23   29.86R WCI  15
MCGREGOR       CLEAR     27  18  69 NW16      29.92R WCI  14
$$
MNZ071>073-080-081-089-090-097-098-251300-
   Southwest Minnesota

CITY           SKY/WX    TMP DP  RH WIND       PRES   REMARKS
MONTEVIDEO     CLEAR     30  27  86 N6        30.01R WCI  24
GRANITE FALLS  CLEAR     29  27  92 W9        30.02R WCI  20
CANBY          CLEAR     33  30  87 NW9       30.03R WCI  25
MARSHALL       CLEAR     31  27  85 NW9       30.02R WCI  23
REDWOOD FALLS  CLEAR     33  27  78 W12       29.99R WCI  24
OLIVIA         CLEAR     32  30  93 NW9       29.98R WCI  24
PIPESTONE      CLEAR     23  21  93 W6        30.01R WCI  16
WINDOM         CLEAR     27  16  63 W8        30.00R WCI  18
WORTHINGTON    CLEAR     30  27  88 W13       30.01R WCI  20
JACKSON        PTCLDY    32  28  86 W10       30.00R WCI  24
SLAYTON        CLEAR     33  29  85 W10       30.00R WCI  24
$$
MNZ065>067-074>077-082>085-091>093-251300-
   South Central Minnesota

CITY           SKY/WX    TMP DP  RH WIND       PRES   REMARKS
MANKATO        CLEAR     36  29  75 NW15      29.97R
NEW ULM        CLEAR     28  25  86 CALM      29.98R
ST JAMES       CLEAR     32  28  86 W8        30.00R WCI  25
FAIRMONT       CLEAR     34  29  82 NW10      29.99R WCI  26
GLENCOE        CLEAR     33  31  92 W9        29.95R WCI  25
FARIBAULT      CLEAR     34  30  86 W9        29.94R WCI  26
OWATONNA       CLEAR     34  30  86 W8        29.94S WCI  27
WASECA         CLEAR     32  30  93 W10       29.97S WCI  24
ALBERT LEA     CLEAR     36  28  75 W9G16     29.95R
$$
MNZ078>079-086>088-094>096-251300-
   Southeast Minnesota

CITY           SKY/WX    TMP DP  RH WIND       PRES   REMARKS
ROCHESTER      CLEAR     33  30  88 W17       29.91R WCI  22
6HR MIN TEMP:  33; 6HR MAX TEMP:  38;

RED WING       CLEAR     36  28  75 NW10      29.90R
STANTON        CLEAR     35  30  82 W12       29.92R WCI  27
DODGE CENTER   CLEAR     34  30  86 W15       29.92R WCI  24
WINONA         CLEAR     37  32  81 NW9G18    29.89R
AUSTIN         CLEAR     36  30  80 NW14      29.94R
PRESTON        CLEAR     34  30  85 NW18      29.91R WCI  23
$$
ABBREVIATIONS USED IN REMARKS
   TC - TEMPERATURES IN CELSIUS
  WCI - WIND CHILL INDEX
   HX - HEAT INDEX
  VSB - VISIBILITY
$$



USA.gov is the U.S. government's official web portal to all federal, state and local government web resources and services.